Showing default

ICEYE-X54, 64570

Orbit data source: Space-Track

ICEYE-X54, 64570 is a payload satellite owned by ICEYE (FI) in SSO that was launched on Mon, 23 Jun 2025 UTC via an FALCON 9 launch vehicle from the Air Force Western Test Range (AFWTR). Payload-class satellites include a variety of spacecraft equipped with specific instruments for various scientific and technological missions. These include communications satellites like Starlink; space stations such as the ISS; scientific satellites like the Hubble; Earth observation satellites from companies like Planet Labs, Umbra, and HawkEye 360; GPS; miniature CubeSats for education and research; and military/defense satellites.

Loading next visibility...
Identifier
64570, 2025-135AU
Orbit
SSO
Country
Flag of FIFI / FIN
Related business
Manufacturer
ICEYE
Mission
Operational Commercial Radar Imaging
Bus & Motor
ICEYE, Unknown motor
Mass
80 kg wet, 80 kg dry
Launch date (UTC)
2025-06-23 (11 months ago)
Launch vehicle
FALCON 9
Launch site
Air Force Western Test Range (AFWTR)
Object type
Payload
Rocket body
Debris
Shape & HBR
Box + 1 Pan, 2.4 m
Radar Cross Section
0.776 m², Medium (>0.1 m² and < 1m²)

Expand to show TLE details & history
Last TLE update: 5 hours ago

TLE from 5 hours ago
0 ICEYE-X54
1 64570U 25135AU  26132.20262843  .00002079  00000-0  19869-3 0  9993
2 64570  97.7679 246.9918 0003615  84.1484 276.0148 14.94338787 48523
Epoch: 2026-05-12T04:51Z
TLE epoch observation values (Epoch: 2026-05-12T04:51:47.096Z)
Latitude
-0.00003°
Longitude
-55.93481°
Altitude
587.208 km
Speed
7.567 km/s
True Right ascension
16h 27m 58s
True Declination
0° 00' 00"
Sunlit
Object was in full shadow at epoch
Visualization orbit readout
Latitude
Unknown
Longitude
Unknown
Altitude
Unknown
Speed
Unknown
Apparent Right ascension
Unknown
Apparent Declination
Unknown
Sunlit
N/A
Visualization observer readout
Local Sidereal Time
17:43:41
Azimuth
Unknown
Elevation
Unknown
Doppler factor
Unknown
Orbital elements
Apogee altitude
583.958 km
Perigee altitude
578.926 km
Semi-major axis
6,959.579 km
Eccentricity
0.00036
Inclination
97.7679°
RAAN
246.9918°
Arg. of periapsis
84.1484°
True anomaly
275.9736°
Mean anomaly
276.0148°
Eccentric anomaly
275.9942°
Mean motion
3.73825 °/min
Orbital period
96.3 mins
BSTAR
0.00019869
Loading maneuver chart data...
Computing Atmospheric mass density...
Loading historical data...
Loading historical data...
Loading historical data...
Loading historical data...
Loading historical data...
Loading historical data...
Loading historical data...

Documentation

Showing up to 5 results
|